Location: Dealu Mare
(46.0500°N, 22.8167°E)
Time: 08:53:24
(UTC+00:00)

Helios 1A Rocket - Pass Details

Date: 15 January 2026
Orbit: 426 x 436 km, 98.3° (Epoch: 10 February)

Event Time Altitude Azimuth Distance (km) Brightness Sun altitude
Rises 04:18:05 0° 165° (SSE) 2,437 6.5 -18.4°
Reaches altitude 10° 04:20:05 10° 165° (SSE) 1,571 5.5 -18.1°
Maximum altitude 04:23:28 89° 264° (W) 455 2.3 -17.5°
Enters shadow 04:25:36 21° 346° (NNW) 1,058 4.0 -17.1°
